Starlink 30074

operational
NORAD ID: 57508 Int'l Des: 2023-113 Owner: SPXS Country: US Constellation: starlink
LEOCIRCULAR

About Starlink 30074

Description loading...

Live Position

Loading 3D Globe...

Upcoming Passes

Altitude History

Altitude vs Time

uPlot chart will show altitude changes over time

Two-Line Element Set

1 57508U 23113P 25305.86067081 .00000736 00000-0 69534-4 0 9993
2 57508 43.0032 351.7233 0001351 270.5271 89.5416 15.02532682124225
Epoch: Nov 1, 2025 • Age: 47 hours

Current Status

Altitude 561.9 km
Velocity 7.59 km/s
Sub-Earth Point 37.46°N, 131.36°E
Launch Date Aug 7, 2023
Age 2.2 years
Type internet

Technical Details

Classification Payload
Mass 730.00 kg
Dry Mass 700.00 kg
Total Mass 730.00 kg
Length 0.30 m
Diameter 4.10 m
Span 29.00 m
Shape Box + pan
Manufacturer SPXS
Bus Type Starlink V2M
Phase Status In Orbit
Owner/State SPXS/US

Large Constellations

Loading constellations...